Weather History for Oskaloosa, IA

Change the Weather History Date:

Sunday, January 6, 2013

  Actual Average (KOTM) Record (KOTM)
Temperature  
Mean Temperature 24 °F 22 °F  
Max Temperature 32 °F 32 °F 58 °F (2012)
Min Temperature 17 °F 14 °F -14 °F (1924)
Degree Days  
Heating Degree Days 40 42  
Month to date heating degree days 252  
Since 1 July heating degree days 2757  
Cooling Degree Days 0 0  
Month to date cooling degree days 0  
Year to date cooling degree days 0  
Moisture  
Dew Point 15 °F    
Average Humidity 69    
Maximum Humidity 85    
Minimum Humidity 49    
Precipitation  
Precipitation 0.00 in 0.03 in 0.14 in (1995)
Month to date precipitation 0.20  
Year to date precipitation 0.20  
Sea Level Pressure  
Sea Level Pressure 30.22 in    
Wind  
Wind Speed 14 mph (WNW)    
Max Wind Speed 23 mph    
Max Gust Speed 30 mph    
Visibility 10 miles    
Events      
T = Trace of Precipitation, MM = Missing Value Source: NWS Daily Summary

Daily Weather History Graph

Daily Weather History Graph

Search for Another Location

Airport:

Trip Planner

Search our weather history database for the weather conditions in past years. The results will help you decide how hot, cold, wet, or windy it might be!

Date:

Astronomy

Jan. 06, 2013 Rise Set
Actual Time 7:35 AM CST 4:56 PM CST
Civil Twilight 7:04 AM CST 5:27 PM CST
Nautical Twilight 6:30 AM CST 6:01 PM CST
Astronomical Twilight 5:56 AM CST 6:35 PM CST
Moon 1:49 AM CST (1/6) 12:25 PM CST (1/6)
Length of Visible Light 10h 22m
Length of Day
9h 21m
Waning Crescent, 33% of the Moon is Illuminated
Jan 6
Waning Crescent
Jan 11
New
Jan 18
First Quarter
Jan 26
Full
Feb 3
Last Quarter

Hourly Weather History & Observations

Time (CST) Temp. Windchill Dew Point Humidity Pressure Visibility Wind Dir Wind Speed Gust Speed Precip Events Conditions
12:15 AM 28.9 °F 16.9 °F 20.3 °F 70% 30.05 in 10.0 mi WNW 17.3 mph 27.6 mph N/A   Overcast
12:35 AM 28.0 °F 14.3 °F 21.7 °F 77% 30.06 in 7.0 mi WNW 21.9 mph 28.8 mph N/A   Overcast
12:55 AM 27.5 °F 13.2 °F 22.1 °F 80% 30.06 in 7.0 mi WNW 23.0 mph 27.6 mph N/A   Overcast
1:15 AM 27.1 °F 12.7 °F 21.7 °F 80% 30.07 in 7.0 mi WNW 23.0 mph 29.9 mph N/A   Overcast
1:35 AM 27.0 °F 13.2 °F 21.4 °F 79% 30.07 in 5.0 mi WNW 20.7 mph 25.3 mph N/A   Haze
1:55 AM 26.4 °F 13.2 °F 20.3 °F 78% 30.07 in 7.0 mi NW 18.4 mph 26.5 mph N/A   Overcast
2:15 AM 25.9 °F 11.4 °F 20.1 °F 79% 30.08 in 7.0 mi WNW 21.9 mph 27.6 mph N/A   Overcast
2:35 AM 25.5 °F 10.6 °F 19.6 °F 78% 30.10 in 7.0 mi WNW 23.0 mph - N/A   Overcast
2:55 AM 25.2 °F 11.6 °F 19.0 °F 78% 30.11 in 7.0 mi WNW 18.4 mph 29.9 mph N/A   Overcast
3:15 AM 24.8 °F 10.7 °F 19.0 °F 79% 30.11 in 10.0 mi WNW 19.6 mph 27.6 mph N/A   Overcast
3:35 AM 24.8 °F 11.5 °F 19.4 °F 80% 30.12 in 7.0 mi NNW 17.3 mph - N/A   Overcast
3:55 AM 24.3 °F 10.8 °F 18.5 °F 79% 30.13 in 10.0 mi NW 17.3 mph 23.0 mph N/A   Overcast
4:15 AM 23.0 °F 10.6 °F 17.4 °F 79% 30.14 in 10.0 mi NW 13.8 mph 21.9 mph N/A   Overcast
4:35 AM 21.9 °F 11.0 °F 17.2 °F 82% 30.14 in 10.0 mi NW 10.4 mph - N/A   Mostly Cloudy
4:55 AM 21.2 °F 8.3 °F 16.7 °F 83% 30.15 in 10.0 mi WNW 13.8 mph - N/A   Scattered Clouds
5:15 AM 20.5 °F 5.9 °F 15.8 °F 82% 30.15 in 10.0 mi WNW 17.3 mph 21.9 mph N/A   Scattered Clouds
5:35 AM 19.9 °F 6.2 °F 15.3 °F 82% 30.16 in 10.0 mi WNW 15.0 mph - N/A   Scattered Clouds
5:55 AM 19.4 °F 6.0 °F 14.9 °F 83% 30.17 in 10.0 mi West 13.8 mph - N/A   Clear
6:15 AM 19.0 °F 7.5 °F 14.9 °F 84% 30.18 in 10.0 mi West 10.4 mph - N/A   Clear
6:35 AM 18.5 °F 4.9 °F 14.7 °F 85% 30.19 in 10.0 mi WNW 13.8 mph - N/A   Clear
6:55 AM 18.3 °F 4.1 °F 14.0 °F 83% 30.20 in 10.0 mi WNW 15.0 mph 18.4 mph N/A   Clear
7:15 AM 18.1 °F 5.0 °F 13.1 °F 81% 30.21 in 10.0 mi WNW 12.7 mph - N/A   Clear
7:35 AM 17.6 °F 3.7 °F 12.7 °F 81% 30.23 in 10.0 mi WNW 13.8 mph - N/A   Clear
7:55 AM 18.0 °F 4.8 °F 11.8 °F 77% 30.23 in 10.0 mi WNW 12.7 mph - N/A   Clear
8:35 AM 19.0 °F 5.0 °F 11.3 °F 72% 30.24 in 10.0 mi WNW 15.0 mph - N/A   Clear
8:55 AM 19.8 °F 5.0 °F 10.6 °F 68% 30.25 in 10.0 mi NW 17.3 mph 21.9 mph N/A   Clear
9:15 AM 20.5 °F 7.4 °F 10.4 °F 65% 30.26 in 10.0 mi NW 13.8 mph 20.7 mph N/A   Scattered Clouds
9:35 AM 20.3 °F 6.6 °F 9.3 °F 63% 30.27 in 10.0 mi NW 15.0 mph 20.7 mph N/A   Scattered Clouds
9:55 AM 22.1 °F 8.9 °F 8.4 °F 56% 30.28 in 10.0 mi WNW 15.0 mph 20.7 mph N/A   Scattered Clouds
10:15 AM 22.5 °F 9.9 °F 8.8 °F 56% 30.29 in 10.0 mi WNW 13.8 mph - N/A   Clear
10:35 AM 23.9 °F 12.3 °F 9.1 °F 53% 30.29 in 10.0 mi West 12.7 mph - N/A   Clear
10:55 AM 25.0 °F 13.6 °F 9.3 °F 52% 30.28 in 10.0 mi West 12.7 mph - N/A   Clear
11:35 AM 26.8 °F 15.9 °F 10.2 °F 50% 30.29 in 10.0 mi NW 12.7 mph - N/A   Clear
11:55 AM 27.7 °F 17.1 °F 11.8 °F 51% 30.28 in 10.0 mi NW 12.7 mph - N/A   Clear
12:15 PM 28.6 °F 18.7 °F 12.6 °F 51% 30.28 in 10.0 mi NW 11.5 mph 17.3 mph N/A   Clear
12:35 PM 29.1 °F 21.3 °F 13.3 °F 52% 30.28 in 10.0 mi NW 8.1 mph 12.7 mph N/A   Clear
12:55 PM 29.7 °F 20.1 °F 13.5 °F 51% 30.28 in 10.0 mi NW 11.5 mph - N/A   Clear
1:15 PM 30.2 °F 20.8 °F 14.2 °F 51% 30.27 in 10.0 mi WNW 11.5 mph 16.1 mph N/A   Clear
1:35 PM 30.9 °F 22.2 °F 14.0 °F 50% 30.27 in 10.0 mi WNW 10.4 mph - N/A   Clear
1:55 PM 31.1 °F 23.1 °F 14.0 °F 49% 30.27 in 10.0 mi NW 9.2 mph - N/A   Clear
2:15 PM 31.8 °F 24.6 °F 14.7 °F 49% 30.27 in 10.0 mi West 8.1 mph - N/A   Clear
2:35 PM 32.0 °F 24.2 °F 14.9 °F 49% 30.27 in 10.0 mi West 9.2 mph - N/A   Clear
2:55 PM 32.0 °F 23.0 °F 14.7 °F 49% 30.28 in 10.0 mi WNW 11.5 mph - N/A   Clear
3:15 PM 32.0 °F 24.8 °F 14.9 °F 49% 30.28 in 10.0 mi WNW 8.1 mph - N/A   Clear
3:35 PM 31.8 °F 25.4 °F 14.5 °F 49% 30.28 in 10.0 mi West 6.9 mph - N/A   Clear
3:55 PM 32.0 °F 24.2 °F 14.9 °F 49% 30.29 in 10.0 mi West 9.2 mph - N/A   Clear
4:15 PM 31.6 °F 25.1 °F 15.6 °F 52% 30.29 in 10.0 mi WNW 6.9 mph - N/A   Clear
4:35 PM 30.6 °F 25.8 °F 15.8 °F 54% 30.28 in 10.0 mi West 4.6 mph - N/A   Clear
4:55 PM 28.9 °F 23.9 °F 16.2 °F 59% 30.29 in 10.0 mi WNW 4.6 mph - N/A   Clear
5:15 PM 26.4 °F 20.9 °F 15.8 °F 64% 30.29 in 10.0 mi NW 4.6 mph - N/A   Clear
5:35 PM 26.4 °F 22.4 °F 16.7 °F 67% 30.30 in 7.0 mi NW 3.5 mph - N/A   Clear
6:15 PM 25.9 °F - 16.7 °F 68% 30.29 in 10.0 mi Calm Calm - N/A   Clear
6:35 PM 25.0 °F - 16.5 °F 70% 30.29 in 10.0 mi Calm Calm - N/A   Clear
6:55 PM 25.7 °F - 16.9 °F 69% 30.29 in 10.0 mi Calm Calm - N/A   Clear
7:15 PM 23.7 °F - 15.6 °F 71% 30.29 in 10.0 mi Calm Calm - N/A   Clear
7:35 PM 22.6 °F - 15.1 °F 73% 30.29 in 10.0 mi Calm Calm - N/A   Clear
7:55 PM 21.7 °F 14.3 °F 14.4 °F 73% 30.28 in 10.0 mi SSE 5.8 mph - N/A   Clear
8:15 PM 20.7 °F 11.9 °F 14.2 °F 76% 30.29 in 10.0 mi SSE 6.9 mph - N/A   Clear
8:35 PM 19.8 °F 9.1 °F 13.8 °F 78% 30.29 in 10.0 mi SSE 9.2 mph - N/A   Clear
9:35 PM 19.4 °F 10.4 °F 13.5 °F 78% 30.28 in 10.0 mi South 6.9 mph - N/A   Clear
9:55 PM 18.7 °F 8.6 °F 12.9 °F 78% 30.27 in 10.0 mi South 8.1 mph - N/A   Clear
10:15 PM 19.4 °F 7.9 °F 13.8 °F 79% 30.26 in 10.0 mi South 10.4 mph - N/A   Clear
10:35 PM 18.7 °F 7.8 °F 13.6 °F 81% 30.26 in 10.0 mi South 9.2 mph - N/A   Clear
10:55 PM 20.1 °F 10.3 °F 14.9 °F 80% 30.26 in 10.0 mi South 8.1 mph - N/A   Clear
11:35 PM 18.5 °F 6.8 °F 13.8 °F 82% 30.25 in 10.0 mi South 10.4 mph - N/A   Clear
11:55 PM 20.3 °F 9.8 °F 15.4 °F 81% 30.25 in 10.0 mi South 9.2 mph - N/A   Clear